FDX4IR EGKK-EGCC

Flight info

Callsign FDX4IR
Flight time N/A
Altitude 24000
Route LAM1Z LAM N57 WELIN DCT TIMPO DCT ELVOS DCT TNT DCT
Aircraft MD11/H-SDE1E2E3FGHIJ2J3J4J5M1RWXY/LB1D1

Departure

Time 2026-05-07 20:08
Airport London Gatwick Airport (EGKK)

Arrival

Time N/A
Airport Manchester Airport (EGCC)
Time Latitude Longitude Altitude Speed Heading
2026-05-07 19:25 51.15291 -0.18650 207 ft 0 kts 77°
2026-05-07 19:47 51.15291 -0.18651 207 ft 0 kts 77°
2026-05-07 19:47 51.15288 -0.18674 207 ft 2 kts 92°
2026-05-07 19:47 51.15291 -0.18698 207 ft 2 kts 109°
2026-05-07 19:47 51.15298 -0.18721 207 ft 2 kts 124°
2026-05-07 19:48 51.15308 -0.18740 207 ft 2 kts 140°
2026-05-07 19:48 51.15321 -0.18754 207 ft 2 kts 155°
2026-05-07 19:48 51.15333 -0.18760 207 ft 1 kts 168°
2026-05-07 19:48 51.15335 -0.18761 207 ft 0 kts 168°
2026-05-07 19:52 51.15325 -0.18758 207 ft 2 kts 168°
2026-05-07 19:52 51.15303 -0.18750 207 ft 4 kts 167°
2026-05-07 19:52 51.15269 -0.18738 207 ft 5 kts 167°
2026-05-07 19:53 51.15222 -0.18721 207 ft 7 kts 167°
2026-05-07 19:53 51.15192 -0.18710 207 ft 0 kts 167°
2026-05-07 19:53 51.15185 -0.18708 207 ft 1 kts 167°
2026-05-07 19:54 51.15167 -0.18701 207 ft 3 kts 168°
2026-05-07 19:54 51.15148 -0.18704 207 ft 2 kts 198°
2026-05-07 19:54 51.15126 -0.18726 207 ft 3 kts 232°
2026-05-07 19:54 51.15115 -0.18782 207 ft 7 kts 258°
2026-05-07 19:55 51.15100 -0.18895 207 ft 12 kts 259°
2026-05-07 19:55 51.15080 -0.19067 207 ft 18 kts 258°
2026-05-07 19:55 51.15048 -0.19301 207 ft 24 kts 257°
2026-05-07 19:55 51.15007 -0.19592 207 ft 27 kts 257°
2026-05-07 19:56 51.14968 -0.19870 207 ft 26 kts 257°
2026-05-07 19:56 51.14927 -0.20162 207 ft 28 kts 257°
2026-05-07 19:56 51.14886 -0.20481 207 ft 29 kts 258°
2026-05-07 19:56 51.14841 -0.20802 207 ft 30 kts 257°
2026-05-07 19:57 51.14813 -0.21016 207 ft 9 kts 258°
2026-05-07 19:57 51.14797 -0.21126 207 ft 9 kts 253°
2026-05-07 19:57 51.14777 -0.21235 207 ft 10 kts 255°
2026-05-07 19:57 51.14756 -0.21363 207 ft 12 kts 255°
2026-05-07 19:58 51.14735 -0.21416 207 ft 4 kts 203°
2026-05-07 19:58 51.14722 -0.21418 207 ft 0 kts 171°
2026-05-07 19:58 51.14721 -0.21418 207 ft 0 kts 171°
2026-05-07 20:01 51.14714 -0.21416 207 ft 1 kts 171°
2026-05-07 20:01 51.14697 -0.21411 207 ft 3 kts 168°
2026-05-07 20:01 51.14680 -0.21402 207 ft 2 kts 152°
2026-05-07 20:02 51.14667 -0.21387 207 ft 2 kts 136°
2026-05-07 20:02 51.14653 -0.21359 207 ft 1 kts 132°
2026-05-07 20:02 51.14649 -0.21355 207 ft 0 kts 150°
2026-05-07 20:02 51.14648 -0.21355 207 ft 0 kts 160°
2026-05-07 20:06 51.14638 -0.21349 207 ft 2 kts 161°
2026-05-07 20:06 51.14597 -0.21330 207 ft 9 kts 165°
2026-05-07 20:06 51.14525 -0.21244 207 ft 17 kts 116°
2026-05-07 20:06 51.14526 -0.21096 207 ft 7 kts 78°
2026-05-07 20:07 51.14543 -0.20964 207 ft 17 kts 78°
2026-05-07 20:07 51.14586 -0.20639 207 ft 51 kts 78°
2026-05-07 20:07 51.14723 -0.19659 207 ft 125 kts 78°
2026-05-07 20:07 51.14958 -0.17980 262 ft 180 kts 77°
2026-05-07 20:08 51.15249 -0.15955 744 ft 194 kts 77°
2026-05-07 20:08 51.15540 -0.13898 1664 ft 185 kts 78°
2026-05-07 20:08 51.15797 -0.11924 2281 ft 186 kts 79°
2026-05-07 20:08 51.16058 -0.09900 2941 ft 189 kts 78°
2026-05-07 20:09 51.16342 -0.07808 3504 ft 202 kts 79°
2026-05-07 20:09 51.16834 -0.05571 3851 ft 228 kts 59°
2026-05-07 20:09 51.17844 -0.03493 4355 ft 250 kts 48°
2026-05-07 20:10 51.20228 0.00885 4930 ft 266 kts 51°
2026-05-07 20:10 51.21377 0.03191 4942 ft 267 kts 52°
2026-05-07 20:10 51.22506 0.05540 4986 ft 268 kts 52°
2026-05-07 20:10 51.23616 0.07859 4994 ft 268 kts 52°
2026-05-07 20:11 51.24464 0.09625 4989 ft 268 kts 54°
2026-05-07 20:11 51.25063 0.11166 4988 ft 268 kts 64°
2026-05-07 20:11 51.25653 0.13927 5006 ft 268 kts 81°
2026-05-07 20:11 51.25889 0.16862 5019 ft 268 kts 83°
2026-05-07 20:12 51.26131 0.19862 4991 ft 267 kts 81°
2026-05-07 20:12 51.26459 0.22801 4982 ft 267 kts 79°
2026-05-07 20:12 51.26803 0.25705 4981 ft 268 kts 79°
2026-05-07 20:12 51.27141 0.28625 4980 ft 268 kts 79°
2026-05-07 20:13 51.27473 0.31563 4977 ft 268 kts 79°
2026-05-07 20:13 51.28055 0.34379 4974 ft 267 kts 54°
2026-05-07 20:13 51.29430 0.36372 5070 ft 269 kts 26°
2026-05-07 20:13 51.31207 0.37201 5048 ft 269 kts
2026-05-07 20:14 51.33065 0.36789 5005 ft 268 kts 338°
2026-05-07 20:14 51.34692 0.35353 4987 ft 267 kts 328°
2026-05-07 20:14 51.36308 0.33887 4953 ft 267 kts 333°
2026-05-07 20:14 51.37955 0.32638 4940 ft 268 kts 336°
2026-05-07 20:15 51.39677 0.31443 4927 ft 268 kts 337°
2026-05-07 20:15 51.41385 0.30312 4938 ft 268 kts 338°
2026-05-07 20:15 51.43086 0.29205 5110 ft 262 kts 338°
2026-05-07 20:15 51.44805 0.28093 5657 ft 272 kts 338°
2026-05-07 20:16 51.46585 0.26939 6177 ft 275 kts 338°
2026-05-07 20:16 51.48333 0.25803 6652 ft 275 kts 338°
2026-05-07 20:16 51.50051 0.24684 7116 ft 276 kts 338°
2026-05-07 20:16 51.51818 0.23527 7608 ft 278 kts 338°
2026-05-07 20:17 51.53593 0.22364 8100 ft 280 kts 338°
2026-05-07 20:17 51.55383 0.21196 8592 ft 282 kts 338°
2026-05-07 20:17 51.57180 0.20023 9083 ft 284 kts 338°
2026-05-07 20:17 51.58856 0.18927 9538 ft 286 kts 338°
2026-05-07 20:18 51.60725 0.17706 10042 ft 288 kts 338°
2026-05-07 20:18 51.62574 0.16498 10536 ft 290 kts 338°
2026-05-07 20:18 51.64201 0.15407 10963 ft 292 kts 334°
2026-05-07 20:18 51.65995 0.13485 11507 ft 306 kts 316°
2026-05-07 20:19 51.67414 0.10911 12036 ft 322 kts 309°
2026-05-07 20:19 51.68893 0.08136 12517 ft 341 kts 312°
2026-05-07 20:19 51.70562 0.05224 13002 ft 360 kts 313°
2026-05-07 20:19 51.72326 0.02246 13484 ft 377 kts 314°
2026-05-07 20:20 51.74182 -0.00867 13965 ft 394 kts 314°
2026-05-07 20:20 51.76126 -0.04134 14443 ft 411 kts 314°
2026-05-07 20:20 51.78105 -0.07456 14915 ft 426 kts 314°
2026-05-07 20:20 51.80205 -0.10975 15405 ft 435 kts 314°
2026-05-07 20:21 51.82286 -0.14464 15889 ft 437 kts 314°
2026-05-07 20:21 51.84378 -0.17969 16380 ft 439 kts 314°
2026-05-07 20:21 51.86519 -0.21553 16883 ft 442 kts 314°
2026-05-07 20:21 51.88664 -0.25143 17387 ft 445 kts 314°
2026-05-07 20:22 51.90716 -0.28576 17863 ft 448 kts 314°
2026-05-07 20:22 51.92874 -0.32184 18364 ft 451 kts 314°
2026-05-07 20:22 51.95169 -0.36019 18861 ft 455 kts 314°
2026-05-07 20:22 51.97286 -0.39554 18973 ft 456 kts 314°
2026-05-07 20:23 51.99589 -0.43399 18997 ft 455 kts 314°
2026-05-07 20:23 52.01610 -0.46771 19010 ft 455 kts 314°
2026-05-07 20:23 52.04055 -0.50847 19021 ft 455 kts 315°
2026-05-07 20:23 52.06256 -0.54517 19026 ft 455 kts 315°
2026-05-07 20:24 52.08478 -0.58216 19027 ft 455 kts 315°
2026-05-07 20:24 52.10247 -0.61162 19026 ft 455 kts 315°
2026-05-07 20:24 52.12897 -0.65572 19000 ft 455 kts 314°
2026-05-07 20:24 52.15136 -0.69297 18998 ft 455 kts 314°
2026-05-07 20:25 52.17332 -0.72947 19000 ft 455 kts 314°
2026-05-07 20:25 52.19570 -0.76665 19002 ft 455 kts 314°
2026-05-07 20:25 52.21782 -0.80337 19002 ft 455 kts 314°
2026-05-07 20:25 52.24084 -0.83970 18978 ft 454 kts 318°
2026-05-07 20:26 52.26551 -0.87073 18998 ft 455 kts 325°
2026-05-07 20:26 52.29247 -0.89902 19016 ft 456 kts 329°
2026-05-07 20:26 52.32006 -0.92500 19000 ft 455 kts 329°
2026-05-07 20:26 52.34738 -0.95200 18996 ft 455 kts 328°
2026-05-07 20:27 52.37442 -0.97929 18996 ft 455 kts 328°
2026-05-07 20:27 52.40151 -1.00643 18996 ft 455 kts 328°
2026-05-07 20:27 52.42868 -1.03362 18996 ft 455 kts 328°
2026-05-07 20:27 52.45192 -1.05691 18996 ft 455 kts 328°
2026-05-07 20:28 52.47923 -1.08424 18995 ft 455 kts 329°
2026-05-07 20:28 52.50618 -1.11118 18994 ft 455 kts 329°
2026-05-07 20:28 52.53357 -1.13858 18993 ft 455 kts 329°
2026-05-07 20:28 52.56063 -1.16565 18992 ft 455 kts 329°
2026-05-07 20:29 52.58773 -1.19312 18990 ft 455 kts 328°
2026-05-07 20:29 52.61455 -1.22038 18990 ft 455 kts 328°
2026-05-07 20:29 52.64205 -1.24805 18990 ft 455 kts 329°
2026-05-07 20:29 52.66893 -1.27523 18991 ft 455 kts 328°
2026-05-07 20:30 52.69603 -1.30269 18990 ft 455 kts 329°
2026-05-07 20:30 52.72296 -1.33017 18988 ft 455 kts 328°
2026-05-07 20:30 52.75008 -1.35831 18988 ft 455 kts 328°
2026-05-07 20:30 52.77699 -1.38586 18988 ft 455 kts 328°
2026-05-07 20:31 52.80405 -1.41359 18989 ft 455 kts 328°
2026-05-07 20:31 52.83101 -1.44137 18990 ft 455 kts 328°
2026-05-07 20:31 52.85779 -1.46880 18990 ft 455 kts 328°
2026-05-07 20:31 52.88465 -1.49636 18991 ft 455 kts 328°
2026-05-07 20:32 52.91204 -1.52450 18953 ft 455 kts 328°
2026-05-07 20:32 52.93905 -1.55218 18840 ft 454 kts 329°
2026-05-07 20:32 52.96655 -1.58039 18729 ft 453 kts 329°
2026-05-07 20:32 52.99331 -1.60783 18621 ft 453 kts 329°
2026-05-07 20:33 53.02037 -1.63556 18512 ft 452 kts 329°
2026-05-07 20:33 53.04679 -1.66264 18405 ft 451 kts 328°
2026-05-07 20:33 53.07448 -1.68918 18271 ft 450 kts 335°
2026-05-07 20:33 53.10334 -1.70906 18179 ft 449 kts 337°
2026-05-07 20:34 53.13221 -1.73031 18170 ft 450 kts 335°
2026-05-07 20:34 53.16032 -1.75187 18077 ft 450 kts 335°
2026-05-07 20:34 53.18799 -1.77297 17588 ft 447 kts 335°
2026-05-07 20:34 53.21600 -1.79436 16815 ft 437 kts 335°
2026-05-07 20:35 53.24371 -1.81574 16089 ft 432 kts 333°
2026-05-07 20:35 53.26822 -1.84380 15405 ft 428 kts 316°
2026-05-07 20:35 53.28698 -1.88224 14722 ft 425 kts 300°
2026-05-07 20:35 53.30143 -1.92526 14035 ft 423 kts 300°
2026-05-07 20:36 53.31504 -1.96920 13295 ft 420 kts 290°
2026-05-07 20:36 53.32044 -2.00400 12771 ft 417 kts 277°
2026-05-07 20:36 53.32026 -2.05277 12066 ft 413 kts 261°
2026-05-07 20:36 53.31176 -2.09849 11362 ft 409 kts 244°
2026-05-07 20:37 53.29646 -2.13638 10681 ft 405 kts 227°
2026-05-07 20:37 53.27460 -2.16606 9973 ft 401 kts 210°
2026-05-07 20:37 53.24935 -2.18271 9267 ft 376 kts 192°
2026-05-07 20:37 53.22440 -2.18457 8590 ft 346 kts 171°
2026-05-07 20:38 53.20247 -2.17194 7924 ft 322 kts 148°
2026-05-07 20:38 53.18655 -2.14776 7269 ft 305 kts 124°
2026-05-07 20:38 53.17840 -2.11662 6613 ft 293 kts 99°
2026-05-07 20:38 53.17892 -2.08360 5944 ft 285 kts 73°
2026-05-07 20:39 53.18778 -2.05449 5341 ft 274 kts 51°
2026-05-07 20:39 53.20005 -2.03183 5137 ft 261 kts 45°
2026-05-07 20:39 53.21364 -2.01085 5185 ft 272 kts 41°
2026-05-07 20:39 53.22827 -1.98962 5070 ft 273 kts 40°
2026-05-07 20:40 53.24273 -1.96907 5007 ft 269 kts 40°
2026-05-07 20:40 53.25708 -1.94874 5027 ft 268 kts 40°
2026-05-07 20:40 53.27221 -1.93090 5031 ft 267 kts 25°
2026-05-07 20:40 53.28952 -1.92006 5099 ft 268 kts 17°
2026-05-07 20:41 53.30758 -1.91169 5075 ft 269 kts 14°
2026-05-07 20:41 53.32573 -1.90421 5061 ft 268 kts 13°
2026-05-07 20:41 53.34395 -1.89696 5057 ft 268 kts 13°
2026-05-07 20:41 53.36208 -1.88978 5072 ft 268 kts 13°
2026-05-07 20:42 53.38026 -1.88255 5089 ft 268 kts 13°
2026-05-07 20:42 53.39856 -1.87522 5087 ft 268 kts 13°
2026-05-07 20:42 53.41691 -1.86781 5085 ft 268 kts 13°
2026-05-07 20:42 53.43491 -1.85871 5066 ft 268 kts 26°
2026-05-07 20:43 53.44909 -1.83886 5111 ft 268 kts 53°
2026-05-07 20:43 53.45504 -1.81009 5473 ft 267 kts 88°
2026-05-07 20:43 53.44907 -1.78093 5846 ft 272 kts 130°
2026-05-07 20:43 53.43298 -1.76498 6123 ft 272 kts 171°
2026-05-07 20:44 53.41491 -1.77165 6173 ft 275 kts 211°
2026-05-07 20:44 53.40332 -1.79670 6077 ft 275 kts 249°
2026-05-07 20:44 53.39897 -1.82777 5892 ft 273 kts 259°
2026-05-07 20:44 53.39594 -1.85878 5653 ft 271 kts 263°
2026-05-07 20:45 53.39540 -1.89038 5418 ft 270 kts 272°
2026-05-07 20:45 53.39743 -1.92142 5191 ft 269 kts 280°
2026-05-07 20:45 53.40241 -1.95230 4788 ft 271 kts 289°
2026-05-07 20:45 53.40963 -1.97965 4345 ft 245 kts 295°
2026-05-07 20:46 53.41597 -2.00580 3681 ft 231 kts 290°
2026-05-07 20:46 53.41832 -2.01659 3747 ft 213 kts 290°